When you browse on this site, cookies collect data to enhance your experience and personalize the content and advertising you see.
Visit our Privacy Policy to learn more. By continuing to use the site, you agree to this use of cookies and data.
  • In Netherlands
  • List of Countries
  • For 7 days
  • Water Temperature
  • Satellite Maps
  • Weather Map
  • Weather Widgets
  • user-avatar
    Login

    Hourly Weather Ramency

    Today, 21 February, Thursday

    Time Temperature Precipitation Wind Pressure Humidity
    00:00 -15°C° 0.1 mm 8 mps 734 mmHg 83%
    01:00 -15°C° 0.1 mm 8 mps 736 mmHg 81%
    02:00 -14°C° 0 mm 7 mps 737 mmHg 79%
    03:00 -14°C° 0 mm 7 mps 737 mmHg 80%
    04:00 -14°C° 0 mm 7 mps 738 mmHg 81%
    05:00 -14°C° 0 mm 7 mps 739 mmHg 82%
    06:00 -14°C° 0 mm 7 mps 740 mmHg 83%
    07:00 -15°C° 0 mm 7 mps 741 mmHg 84%
    08:00 -15°C° 0 mm 6 mps 742 mmHg 86%
    09:00 -15°C° 0 mm 6 mps 743 mmHg 86%
    10:00 -15°C° 0 mm 6 mps 744 mmHg 87%
    11:00 -15°C° 0 mm 6 mps 745 mmHg 87%
    12:00 -15°C° 0 mm 6 mps 746 mmHg 87%
    13:00 -14°C° 0 mm 6 mps 746 mmHg 87%
    14:00 -13°C° 0 mm 5 mps 747 mmHg 87%
    15:00 -14°C° 0 mm 5 mps 748 mmHg 87%
    16:00 -14°C° 0 mm 5 mps 749 mmHg 88%
    17:00 -14°C° 0 mm 5 mps 749 mmHg 89%
    18:00 -15°C° 0 mm 4 mps 750 mmHg 90%
    19:00 -16°C° 0 mm 4 mps 751 mmHg 91%
    20:00 -16°C° 0 mm 4 mps 751 mmHg 92%
    21:00 -17°C° 0 mm 4 mps 752 mmHg 93%
    22:00 -17°C° 0 mm 4 mps 753 mmHg 94%
    23:00 -17°C° 0 mm 4 mps 753 mmHg 94%

    Tomorrow, 22 February, Friday

    Time Temperature Precipitation Wind Pressure Humidity
    00:00 -18°C° 0 mm 4 mps 754 mmHg 94%
    01:00 -18°C° 0 mm 4 mps 754 mmHg 93%
    02:00 -19°C° 0 mm 4 mps 755 mmHg 93%
    03:00 -18°C° 0 mm 3 mps 756 mmHg 92%
    04:00 -18°C° 0 mm 3 mps 756 mmHg 91%
    05:00 -19°C° 0 mm 3 mps 757 mmHg 90%
    06:00 -19°C° 0 mm 3 mps 757 mmHg 89%
    07:00 -19°C° 0 mm 3 mps 758 mmHg 89%
    08:00 -19°C° 0 mm 3 mps 758 mmHg 88%
    09:00 -18°C° 0 mm 3 mps 759 mmHg 87%
    10:00 -17°C° 0 mm 3 mps 759 mmHg 86%
    11:00 -16°C° 0 mm 3 mps 760 mmHg 84%
    12:00 -15°C° 0 mm 3 mps 760 mmHg 85%
    13:00 -14°C° 0 mm 3 mps 760 mmHg 85%
    14:00 -14°C° 0 mm 3 mps 760 mmHg 85%
    15:00 -15°C° 0 mm 3 mps 760 mmHg 86%
    16:00 -14°C° 0 mm 2 mps 760 mmHg 88%
    17:00 -15°C° 0 mm 2 mps 760 mmHg 89%
    18:00 -16°C° 0 mm 2 mps 760 mmHg 88%
    19:00 -16°C° 0 mm 2 mps 759 mmHg 87%
    20:00 -16°C° 0 mm 2 mps 759 mmHg 87%
    21:00 -16°C° 0 mm 2 mps 759 mmHg 84%
    22:00 -17°C° 0 mm 3 mps 758 mmHg 82%
    23:00 -16°C° 0 mm 3 mps 758 mmHg 80%

    Day after tomorrow, 23 February, Saturday

    Time Temperature Precipitation Wind Pressure Humidity
    00:00 -15°C° 0 mm 3 mps 757 mmHg 78%
    01:00 -15°C° 0 mm 4 mps 756 mmHg 75%
    02:00 -14°C° 0 mm 5 mps 755 mmHg 73%
    03:00 -14°C° 0.3 mm 5 mps 754 mmHg 79%
    04:00 -14°C° 0.3 mm 6 mps 753 mmHg 85%
    05:00 -14°C° 0.3 mm 6 mps 751 mmHg 92%
    06:00 -12°C° 0.9 mm 6 mps 751 mmHg 92%
    07:00 -12°C° 0.9 mm 6 mps 750 mmHg 93%
    08:00 -11°C° 0.9 mm 6 mps 749 mmHg 94%
    09:00 -10°C° 0.2 mm 5 mps 748 mmHg 93%
    10:00 -7°C° 0.2 mm 5 mps 748 mmHg 92%
    11:00 -5°C° 0.2 mm 5 mps 747 mmHg 92%
    12:00 -4°C° 0 mm 5 mps 747 mmHg 94%
    13:00 -2°C° 0 mm 5 mps 746 mmHg 97%
    14:00 0°C° 0 mm 5 mps 746 mmHg 99%
    15:00 0°C° 0 mm 4 mps 746 mmHg 99%
    16:00 0°C° 0 mm 4 mps 746 mmHg 99%
    17:00 0°C° 0 mm 4 mps 746 mmHg 98%
    18:00 -1°C° 0 mm 4 mps 746 mmHg 98%
    19:00 -1°C° 0 mm 4 mps 746 mmHg 98%
    20:00 -1°C° 0 mm 4 mps 747 mmHg 98%
    21:00 -1°C° 0 mm 4 mps 747 mmHg 97%
    22:00 -1°C° 0 mm 4 mps 747 mmHg 96%
    23:00 -1°C° 0 mm 4 mps 747 mmHg 95%

    24 February, Sunday

    Time Temperature Precipitation Wind Pressure Humidity
    00:00 -1°C° 0 mm 4 mps 747 mmHg 94%
    01:00 -2°C° 0 mm 4 mps 747 mmHg 94%
    02:00 -2°C° 0 mm 4 mps 748 mmHg 93%
    03:00 -2°C° 0 mm 3 mps 748 mmHg 93%
    04:00 -2°C° 0 mm 3 mps 748 mmHg 93%
    05:00 -4°C° 0 mm 3 mps 748 mmHg 93%
    06:00 -4°C° 0 mm 3 mps 748 mmHg 93%
    07:00 -5°C° 0 mm 3 mps 749 mmHg 94%
    08:00 -4°C° 0 mm 2 mps 749 mmHg 94%
    09:00 -3°C° 0 mm 2 mps 749 mmHg 95%
    10:00 -2°C° 0 mm 2 mps 748 mmHg 95%
    11:00 -1°C° 0 mm 2 mps 748 mmHg 96%
    12:00 -1°C° 0 mm 3 mps 748 mmHg 96%
    13:00 0°C° 0 mm 3 mps 747 mmHg 97%
    14:00 0°C° 0 mm 3 mps 746 mmHg 98%
    15:00 0°C° 0.1 mm 3 mps 745 mmHg 98%
    16:00 -1°C° 0.1 mm 4 mps 745 mmHg 97%
    17:00 -1°C° 0.1 mm 5 mps 744 mmHg 96%
    18:00 -1°C° 1 mm 5 mps 743 mmHg 96%
    19:00 -1°C° 1 mm 5 mps 742 mmHg 95%
    20:00 -1°C° 1 mm 5 mps 741 mmHg 95%
    21:00 0°C° 0.2 mm 5 mps 740 mmHg 94%
    22:00 -1°C° 0.2 mm 6 mps 740 mmHg 93%
    23:00 -1°C° 0.2 mm 7 mps 740 mmHg 92%

    25 February, Monday

    Time Temperature Precipitation Wind Pressure Humidity
    00:00 -1°C° 0 mm 7 mps 740 mmHg 88%
    01:00 -2°C° 0 mm 7 mps 740 mmHg 85%
    02:00 -2°C° 0 mm 7 mps 741 mmHg 81%
    03:00 -3°C° 0 mm 7 mps 741 mmHg 81%
    04:00 -4°C° 0 mm 7 mps 741 mmHg 80%
    05:00 -5°C° 0 mm 6 mps 741 mmHg 80%
    06:00 -4°C° 0 mm 6 mps 741 mmHg 81%
    07:00 -4°C° 0 mm 6 mps 741 mmHg 82%
    08:00 -4°C° 0 mm 6 mps 741 mmHg 83%
    09:00 -4°C° 0.1 mm 6 mps 740 mmHg 82%
    10:00 -3°C° 0.1 mm 6 mps 740 mmHg 82%
    11:00 -3°C° 0.1 mm 6 mps 740 mmHg 82%
    12:00 -3°C° 0.2 mm 7 mps 740 mmHg 82%
    13:00 -2°C° 0.2 mm 7 mps 740 mmHg 82%
    14:00 -2°C° 0.2 mm 8 mps 740 mmHg 82%
    15:00 -2°C° 0.2 mm 7 mps 741 mmHg 82%
    16:00 -3°C° 0.2 mm 7 mps 741 mmHg 83%
    17:00 -3°C° 0.2 mm 6 mps 742 mmHg 84%
    18:00 -3°C° 0.1 mm 6 mps 742 mmHg 85%
    19:00 -2°C° 0.1 mm 5 mps 743 mmHg 85%
    20:00 -2°C° 0.1 mm 5 mps 743 mmHg 86%
    21:00 -4°C° 0 mm 5 mps 743 mmHg 88%
    22:00 -4°C° 0 mm 4 mps 743 mmHg 90%
    23:00 -5°C° 0 mm 4 mps 743 mmHg 91%

    26 February, Tuesday

    Time Temperature Precipitation Wind Pressure Humidity
    00:00 -6°C° 0 mm 3 mps 743 mmHg 93%
    01:00 -7°C° 0 mm 3 mps 743 mmHg 94%
    02:00 -7°C° 0 mm 3 mps 742 mmHg 95%
    03:00 -7°C° 0 mm 2 mps 742 mmHg 96%
    04:00 -7°C° 0 mm 2 mps 742 mmHg 96%
    05:00 -8°C° 0 mm 2 mps 741 mmHg 97%
    06:00 -8°C° 0 mm 2 mps 741 mmHg 97%
    07:00 -7°C° 0 mm 2 mps 741 mmHg 97%
    08:00 -7°C° 0 mm 2 mps 740 mmHg 97%
    09:00 -7°C° 0 mm 2 mps 741 mmHg 96%
    10:00 -6°C° 0 mm 2 mps 741 mmHg 95%
    11:00 -6°C° 0 mm 2 mps 741 mmHg 94%
    12:00 -5°C° 0 mm 2 mps 741 mmHg 94%
    13:00 -5°C° 0 mm 2 mps 742 mmHg 94%
    14:00 -5°C° 0 mm 2 mps 742 mmHg 93%
    15:00 -5°C° 0 mm 2 mps 742 mmHg 94%
    16:00 -6°C° 0 mm 2 mps 743 mmHg 95%
    17:00 -7°C° 0 mm 2 mps 743 mmHg 96%
    18:00 -7°C° 0 mm 2 mps 744 mmHg 96%
    19:00 -8°C° 0 mm 2 mps 744 mmHg 96%
    20:00 -9°C° 0 mm 2 mps 745 mmHg 97%
    21:00 -9°C° 0 mm 2 mps 745 mmHg 97%
    22:00 -9°C° 0 mm 2 mps 745 mmHg 96%
    23:00 -9°C° 0 mm 1 mps 745 mmHg 96%
    Show more